Theta_e
350 350 351 351 351 351 351 351 350 350 350 350 350 349 349 348 348 348 348 348 348 349 351 349 350 348 346 347 345 346 346 346 346 346 346 346 346 346 347 346 346 346 346 345 343 342 341 341 341 340 339 338 337 337 338 337 337 337 336 335 336 335
349 350 350 349 350 350 349 350 350 351 351 351 350 347 349 349 349 349 348 349 350 349 349 349 350 348 348 347 346 345 346 346 346 346 345 345 346 346 346 345 346 345 344 343 342 341 343 342 341 340 338 336 336 337 338 337 338 337 336 336 336 334
348 349 349 349 349 349 349 350 349 349 349 348 349 348 350 349 349 348 348 348 348 349 348 348 349 348 348 347 347 345 345 346 345 345 345 345 345 346 345 345 345 345 344 343 342 342 342 342 341 338 337 337 337 337 338 338 338 338 336 336 335 336
348 349 348 348 349 348 348 349 348 348 348 348 349 349 349 349 350 349 349 348 347 348 349 349 348 348 348 347 347 346 345 345 345 345 344 345 345 345 343 343 344 343 342 343 344 343 342 343 339 339 338 337 337 337 337 338 336 337 337 335 334 335
348 349 349 348 348 347 348 347 347 347 348 347 348 348 349 349 349 350 350 349 347 347 347 349 349 347 347 348 347 346 345 344 345 344 343 345 345 342 343 343 343 343 344 344 342 343 342 340 338 336 337 337 337 337 337 338 337 336 336 337 336 335
349 349 348 347 348 348 349 347 346 346 347 347 347 348 348 348 349 350 350 349 348 347 347 349 349 347 346 346 346 343 343 343 343 343 344 341 340 342 342 342 343 343 343 343 343 342 341 339 337 337 337 338 337 337 337 338 337 336 337 337 336 334
345 346 347 347 348 347 346 347 348 348 347 347 347 347 347 349 349 349 347 348 345 345 346 346 345 345 345 346 344 345 344 343 343 342 343 339 339 341 341 341 342 343 342 341 340 340 339 338 337 335 336 336 337 337 339 337 336 336 337 336 336 334
343 345 345 347 345 344 346 346 346 347 348 348 347 347 347 348 347 345 346 346 345 345 344 343 344 344 344 344 343 345 345 344 343 342 342 340 337 337 339 340 342 342 340 340 339 339 337 336 336 337 335 336 337 338 339 337 337 337 336 337 337 336
343 343 346 346 343 344 345 345 346 346 345 346 346 346 346 345 344 345 346 346 345 343 343 342 343 342 344 343 343 344 343 343 343 342 342 339 338 337 337 338 340 340 341 340 340 339 337 337 338 338 336 335 336 337 338 337 337 336 337 337 337 336
340 344 344 345 344 343 344 344 345 345 347 346 346 346 346 344 341 343 344 345 344 343 342 341 342 344 341 342 342 343 343 344 343 343 342 340 339 337 336 336 337 338 338 340 339 339 338 338 336 338 337 336 336 338 338 336 337 336 337 337 338 337
342 342 342 344 343 343 344 343 344 345 347 346 346 346 345 345 343 344 344 345 344 342 343 342 342 342 341 342 341 342 341 343 342 342 342 341 341 339 338 337 337 337 339 339 340 340 339 338 337 336 337 335 337 339 337 338 337 338 337 337 337 337
344 342 341 343 344 342 343 344 344 346 346 346 345 345 345 345 343 344 344 344 344 343 343 342 342 341 341 341 341 341 341 342 342 342 343 342 340 340 339 338 340 343 344 343 341 341 341 339 337 336 336 336 338 337 336 337 337 337 337 337 336 337
343 344 342 343 343 344 344 344 343 343 345 344 346 344 344 343 343 343 344 344 344 343 343 343 343 341 341 340 341 340 340 340 342 341 342 342 341 342 341 339 339 340 340 340 338 337 337 337 337 337 338 337 338 336 337 337 337 336 336 336 336 337
343 343 343 344 343 343 343 343 344 344 344 343 344 343 343 344 344 343 344 344 344 344 343 343 343 343 342 341 340 341 341 340 342 341 341 341 339 340 341 340 338 338 336 337 336 336 335 334 335 336 336 336 336 337 337 336 336 335 336 336 337 336
342 343 343 342 342 341 342 342 342 342 342 342 342 342 342 343 343 343 344 343 343 343 343 343 344 344 343 342 342 342 341 342 342 342 341 342 341 341 341 340 337 336 335 335 336 336 335 335 334 334 335 336 335 335 336 335 336 336 335 336 336 336
341 341 341 343 342 342 340 342 340 340 340 341 341 341 342 342 342 344 343 342 343 343 343 343 343 343 343 342 343 343 343 342 342 340 340 340 341 340 341 340 339 339 335 333 334 333 335 334 335 334 335 335 335 335 335 335 335 335 337 336 335 336
340 341 342 341 340 339 340 339 339 339 339 339 340 341 343 343 342 342 342 342 343 342 340 339 339 339 341 340 338 343 344 342 342 340 340 340 341 342 341 338 339 340 339 333 333 333 333 335 333 334 334 334 335 335 335 335 335 335 335 335 335 336
341 341 342 339 338 338 338 339 339 339 338 338 339 341 342 342 340 341 341 340 339 338 337 336 336 336 336 340 338 342 344 342 340 341 340 339 340 341 342 341 337 337 337 336 333 332 332 334 334 333 333 334 334 335 335 335 335 334 334 333 334 334
340 340 338 337 337 337 338 338 339 337 336 337 338 340 341 341 339 339 339 338 337 336 337 338 337 335 336 337 336 338 340 339 337 339 339 338 337 340 340 341 338 334 335 336 334 334 334 334 333 333 333 333 334 335 337 336 334 333 332 333 333 333
340 339 337 337 337 336 336 335 334 334 333 334 336 336 339 340 340 339 339 338 337 338 339 338 336 336 337 334 333 335 334 335 335 335 337 335 336 337 338 338 338 334 333 333 334 334 336 334 333 332 333 333 334 334 334 335 334 333 333 333 334 334
337 337 336 335 335 335 332 333 334 333 332 333 333 334 335 337 339 337 338 338 338 339 338 338 338 336 334 335 335 335 336 335 335 335 335 336 338 337 338 339 335 335 333 331 332 335 336 335 331 331 331 332 335 337 335 334 335 336 334 334 333 333
335 336 336 336 336 336 334 335 334 334 335 334 334 332 333 335 336 337 338 339 338 337 338 338 336 334 333 335 335 336 336 337 336 335 335 338 334 334 333 335 335 332 333 331 330 333 334 332 327 326 324 323 326 329 331 333 333 334 336 333 333 333
333 334 335 336 336 332 333 335 336 335 335 335 338 338 336 335 336 338 338 338 338 338 338 338 335 334 332 335 337 338 338 338 338 336 335 335 333 332 333 335 334 332 329 332 332 334 333 333 328 330 329 325 321 320 325 330 330 329 330 331 332 332
333 334 334 336 334 333 333 335 335 336 336 337 335 336 335 335 335 336 335 336 338 338 337 336 335 334 335 335 336 338 339 338 338 338 337 336 335 333 333 333 335 335 333 328 329 329 333 333 332 329 322 322 322 322 317 321 323 327 333 330 332 332
334 333 334 334 334 336 336 334 335 335 335 335 335 333 332 332 334 334 335 334 335 337 337 337 336 335 335 335 336 337 337 338 338 338 337 337 336 335 335 335 336 334 333 330 328 329 331 333 333 335 328 321 319 317 318 322 323 324 330 329 330 332
333 333 333 334 334 335 333 332 331 330 328 329 328 329 329 329 330 331 332 335 335 335 337 337 336 335 334 335 335 335 337 337 335 336 337 338 338 337 336 336 336 335 333 335 332 328 328 332 333 334 335 333 329 321 321 323 321 316 327 329 329 330
332 333 333 334 335 334 333 333 333 332 330 328 329 332 334 336 334 333 334 334 335 336 335 336 336 335 335 335 336 336 336 336 336 336 336 337 336 336 336 336 336 335 335 334 333 328 328 328 331 331 332 332 332 330 330 323 318 321 317 324 329 328
331 332 333 334 334 334 333 333 333 333 331 331 330 331 333 334 336 333 331 333 334 334 334 335 335 335 336 336 336 335 335 335 335 335 335 335 336 336 336 336 337 337 336 334 332 330 329 329 326 327 331 330 331 332 330 329 329 323 321 318 320 328
331 331 333 333 333 334 334 333 332 332 331 331 333 332 333 334 332 331 331 333 333 333 335 336 336 336 335 335 336 335 336 335 335 335 335 336 336 336 336 336 335 334 334 334 333 334 332 329 329 329 329 328 329 330 329 330 329 329 323 320 319 320
330 331 331 332 333 333 333 332 331 331 330 331 332 333 333 333 332 330 330 329 330 331 332 333 334 335 335 335 335 336 335 335 336 336 335 336 336 336 336 336 335 335 335 334 335 334 332 332 332 333 331 330 329 328 328 327 327 326 326 326 319 319
330 331 332 332 332 332 332 332 332 331 329 331 331 331 330 327 326 328 329 328 328 330 331 332 332 333 335 336 336 336 336 336 337 337 336 336 336 335 336 336 336 336 335 335 334 334 333 334 333 333 332 331 330 329 326 325 326 326 326 323 321 320
329 330 331 333 336 335 334 333 334 332 331 333 332 329 329 326 327 328 329 328 329 329 329 331 331 331 334 335 335 335 336 336 336 336 336 337 337 336 337 337 337 335 335 335 335 334 333 332 332 332 332 332 331 332 332 330 330 329 328 326 324 321
327 329 330 331 331 334 336 336 334 332 331 333 333 333 332 331 331 330 329 328 328 328 329 328 329 330 333 335 335 334 335 334 335 336 336 336 337 337 337 337 336 335 335 334 333 334 333 334 334 332 332 333 333 333 332 333 333 331 330 330 327 322
324 327 329 331 330 330 332 334 335 334 333 333 333 335 335 334 334 333 332 330 330 329 328 329 329 330 333 334 335 335 335 336 336 337 337 337 337 338 338 336 336 335 335 334 335 335 335 336 335 335 335 333 333 332 333 334 333 332 330 329 326 324
322 324 326 328 329 329 330 331 333 333 332 332 334 335 335 335 334 334 332 329 329 331 331 332 330 332 333 334 334 336 336 336 336 337 337 337 337 339 339 337 336 337 336 335 335 335 335 336 334 333 333 333 332 332 332 333 332 332 331 330 329 327
319 321 323 325 327 328 329 330 330 331 331 332 332 334 335 334 334 333 330 329 330 331 330 332 332 332 331 331 333 335 336 336 337 336 337 337 338 338 338 338 337 337 336 335 335 334 336 335 335 334 332 333 334 332 331 332 332 333 331 332 332 330
317 318 318 319 321 324 327 328 328 328 330 331 331 331 331 330 330 329 329 329 330 331 331 333 332 331 330 332 334 336 335 336 336 337 338 338 338 339 338 337 338 337 336 335 335 334 335 335 335 333 332 333 332 334 334 334 333 333 333 333 331 330
Wind_Speed
11 12 11 11 9 10 12 15 14 13 13 14 14 15 14 15 14 13 12 10 9 9 10 10 8 7 9 7 9 10 10 11 11 10 10 10 8 8 10 11 13 15 16 15 13 13 12 12 13 12 12 12 11 6 6 7 7 6 7 7 7 7
12 13 12 9 8 8 10 11 10 11 10 11 12 13 12 11 12 10 11 9 7 7 7 7 9 8 6 8 8 9 11 10 11 11 10 9 7 7 9 11 13 15 16 16 15 9 9 11 12 12 11 10 6 6 6 6 6 6 7 6 6 7
14 13 13 11 8 9 11 9 10 9 9 10 10 10 8 8 8 9 9 7 6 6 7 7 7 7 5 7 8 9 10 10 10 11 11 10 8 8 9 11 12 13 12 13 9 7 7 7 7 12 10 6 5 5 6 6 6 6 6 6 7 8
13 14 12 10 9 9 9 9 8 8 8 8 8 7 8 8 7 7 6 6 5 6 7 7 9 10 8 6 8 9 10 10 10 10 11 9 10 9 10 11 12 14 10 7 6 6 6 5 6 5 5 5 5 6 6 6 5 5 6 6 7 10
11 12 12 10 10 9 9 7 8 8 8 8 8 7 7 7 7 7 7 5 6 6 6 6 6 7 5 4 5 6 6 7 5 6 5 7 6 5 4 7 7 7 6 6 6 5 5 5 5 5 5 4 5 5 5 5 5 5 6 6 8 9
7 8 9 9 8 9 8 8 9 8 8 7 8 7 6 6 7 7 6 5 6 6 6 5 5 6 6 5 3 4 5 6 6 5 3 5 5 4 4 5 6 6 5 5 5 5 5 5 5 4 5 5 5 5 5 5 5 6 6 6 8 9
7 8 9 9 9 9 9 8 7 8 8 8 8 7 7 6 6 6 6 5 6 6 6 6 6 6 6 4 3 3 4 4 3 3 3 4 5 4 4 5 5 5 5 6 6 5 5 5 5 6 5 5 5 5 4 5 5 6 6 6 8 9
5 5 7 9 9 8 8 8 9 8 7 8 8 8 7 5 5 6 7 6 6 6 6 6 6 7 6 5 5 3 3 3 3 2 3 4 5 4 4 4 5 6 6 6 6 6 5 5 5 5 6 5 5 5 4 5 5 5 5 5 7 8
6 6 5 7 9 8 8 8 9 9 9 10 9 8 8 7 4 5 6 7 7 6 5 6 6 6 5 6 5 4 4 4 3 3 3 4 4 4 4 4 5 6 6 6 6 5 5 5 4 4 5 6 5 5 5 5 5 5 5 5 5 7
9 8 6 6 7 7 9 9 9 9 9 9 8 8 9 8 7 6 6 7 7 7 7 6 6 6 6 6 6 5 4 3 3 3 3 4 3 4 4 4 5 5 6 6 6 5 5 5 5 5 4 5 5 5 5 5 5 5 5 5 5 6
13 13 11 9 9 8 9 10 10 9 8 8 8 8 8 8 8 8 6 7 8 8 6 6 6 5 6 5 5 5 5 4 3 3 2 3 3 3 3 4 4 5 5 5 5 5 4 5 4 5 4 5 5 5 5 5 5 5 5 4 4 5
11 9 8 9 8 9 12 10 10 9 8 9 9 8 9 8 8 7 7 7 7 7 7 6 6 5 6 6 5 5 5 5 4 2 2 3 3 3 3 3 2 2 3 4 5 4 4 4 4 4 4 5 5 5 5 5 5 4 4 4 4 5
10 10 11 12 11 11 11 10 11 10 10 10 9 9 9 8 8 8 7 8 8 8 6 6 5 6 6 5 5 5 6 5 4 3 2 3 5 4 4 4 4 3 4 5 6 6 5 4 5 4 3 4 4 5 5 5 4 4 4 4 4 4
10 11 12 12 13 11 10 8 7 10 9 8 9 9 8 8 8 7 7 8 8 8 7 6 5 5 5 5 5 5 5 5 4 4 3 4 4 5 5 5 5 5 6 6 6 6 6 6 5 5 5 5 5 5 5 5 4 4 4 4 4 4
8 9 7 6 6 4 2 3 5 6 5 5 6 8 7 7 7 7 7 7 8 7 7 6 7 5 5 5 5 5 5 5 4 4 3 3 3 4 5 6 6 6 6 6 6 6 5 5 6 6 6 6 5 5 4 4 4 5 4 4 4 4
8 8 10 9 7 4 6 6 5 3 3 5 6 7 6 7 7 7 7 7 8 8 6 7 7 6 4 4 4 4 4 4 4 3 4 4 4 5 5 5 6 6 7 6 6 6 5 5 5 6 6 6 5 5 5 5 5 4 4 4 4 4
9 9 9 8 7 7 6 7 5 6 4 4 5 6 5 5 6 6 5 7 7 7 6 6 5 4 3 3 6 5 4 4 4 4 4 5 5 4 5 5 5 4 5 7 6 7 6 5 6 6 6 6 6 5 5 5 4 4 4 4 4 4
9 9 6 7 7 6 6 7 6 5 6 5 5 6 6 5 5 4 4 6 8 7 7 7 6 6 6 4 4 5 3 3 4 4 4 5 5 4 4 6 6 4 4 6 6 7 7 6 6 6 6 6 6 5 5 4 4 4 4 4 4 4
9 7 6 6 6 5 5 5 4 6 6 6 5 6 6 6 5 5 5 7 8 6 7 8 7 7 6 5 4 2 1 3 2 1 4 6 6 5 5 5 7 7 5 5 5 6 6 7 6 6 6 7 6 5 4 5 4 4 4 4 4 4
6 6 5 5 5 5 3 3 4 5 5 5 5 4 3 6 5 5 6 8 7 7 7 6 6 6 7 6 5 5 6 6 5 5 4 6 6 6 6 7 7 8 7 6 5 6 7 7 7 7 7 6 5 5 3 3 5 4 4 5 4 4
4 5 5 6 6 5 5 6 7 9 6 4 4 3 3 6 3 4 6 7 7 6 6 6 6 6 7 7 6 6 5 6 6 7 6 7 2 2 0 4 7 6 8 8 7 7 7 7 8 6 5 6 5 4 5 5 5 4 5 5 4 4
4 5 7 7 5 5 6 8 7 6 3 4 4 5 5 5 3 6 8 8 7 8 8 7 6 6 6 9 7 7 7 7 8 7 8 5 7 6 8 6 7 7 6 8 7 8 8 8 7 7 7 5 3 3 4 5 5 5 3 4 4 5
4 5 6 7 6 5 6 6 6 5 6 4 3 4 5 5 5 7 8 8 8 8 8 8 9 9 8 9 8 8 8 8 9 9 9 8 10 11 9 8 9 8 8 6 6 7 9 8 5 7 7 7 5 4 3 3 3 4 3 4 4 5
4 5 5 4 2 3 5 4 3 2 3 5 5 5 5 5 7 6 8 8 8 8 9 10 11 10 8 8 9 9 8 8 8 9 8 8 10 11 10 9 9 8 9 9 7 7 9 8 5 8 7 4 5 4 4 7 4 4 4 5 6 6
4 3 3 3 4 3 4 3 3 3 5 6 6 7 8 8 9 8 9 9 9 9 9 10 10 11 8 8 8 8 9 8 8 8 8 8 9 10 11 11 10 9 10 9 9 7 9 7 8 6 5 5 4 4 6 4 6 3 5 4 4 5
4 4 5 6 5 4 4 4 4 5 5 7 9 10 10 9 10 11 9 5 7 9 9 9 9 9 9 8 9 9 10 8 8 8 8 8 7 8 10 10 10 9 10 9 8 8 8 6 7 4 2 3 1 1 5 5 7 5 5 4 3 3
2 3 4 4 3 3 5 5 6 7 8 9 10 9 8 7 7 5 7 9 7 8 9 9 9 8 8 9 9 9 9 9 8 8 8 8 9 9 8 9 10 9 9 8 8 8 10 10 6 3 2 1 2 1 2 7 7 4 6 5 5 6
3 2 3 3 5 5 5 5 5 7 8 9 8 8 8 8 6 4 6 5 4 5 7 8 8 8 8 9 9 9 9 8 8 9 8 8 9 9 8 8 9 9 8 8 9 8 9 10 10 9 6 3 2 1 6 5 4 7 5 7 6 4
2 3 3 4 5 6 7 6 7 6 6 6 5 4 5 5 5 7 4 3 4 3 4 6 7 8 8 9 9 8 9 9 9 9 8 8 9 9 10 10 10 9 9 9 9 8 7 9 10 8 9 7 5 3 5 3 4 4 3 5 6 6
1 2 2 3 4 5 7 6 6 7 6 4 3 3 5 7 5 6 7 8 8 7 4 3 5 7 8 9 9 8 8 9 9 9 8 9 9 9 9 10 11 11 11 10 8 8 8 8 9 8 9 7 6 5 5 4 5 5 2 3 3 7
4 2 1 3 3 4 5 4 5 5 7 4 4 2 1 5 3 3 5 6 6 5 6 6 4 6 8 8 9 8 8 8 9 9 9 9 9 10 10 9 9 11 12 11 10 9 8 8 8 7 9 7 7 7 7 6 5 6 4 4 4 5
5 4 3 3 4 4 4 5 4 3 4 2 3 4 5 6 7 7 6 6 6 5 6 6 7 8 9 9 8 8 9 9 9 9 9 8 8 9 9 9 8 9 9 11 9 9 9 9 9 7 9 8 7 7 6 5 4 4 4 3 3 5
8 8 5 3 6 5 4 5 6 6 5 6 6 6 6 6 7 6 6 5 6 7 6 7 7 8 9 10 9 8 9 9 8 9 9 9 9 10 9 9 9 10 9 11 10 10 8 9 9 8 8 8 8 7 7 5 4 4 3 2 3 5
10 9 7 6 5 3 4 6 6 6 6 5 6 8 8 7 7 5 5 6 7 7 7 8 8 8 8 9 9 8 9 9 9 9 9 10 9 9 9 8 9 9 10 10 10 11 10 10 9 9 6 7 7 7 6 5 5 4 4 5 5 5
11 11 9 8 6 7 7 6 6 7 7 7 7 6 7 7 6 5 2 3 3 6 8 7 8 4 3 5 7 8 9 9 10 9 10 10 9 8 8 8 8 10 9 9 10 11 10 10 9 10 10 8 8 6 6 5 5 5 5 5 5 6
11 11 12 11 10 9 9 8 8 7 8 8 7 6 4 4 2 1 4 7 7 7 10 8 6 7 9 9 10 10 10 10 9 9 9 10 9 8 9 8 8 8 10 8 10 11 9 10 9 10 9 8 6 8 9 6 6 5 5 5 5 6
12 11 12 11 10 10 10 9 8 8 8 7 7 6 4 1 4 9 9 9 9 10 10 9 9 11 8 9 10 11 10 10 10 9 10 9 9 9 9 9 8 9 9 8 8 10 9 8 7 8 8 11 10 7 6 6 5 5 5 4 5 6
Wind_Direction
148 146 145 146 146 148 146 148 144 141 145 151 151 150 147 147 149 153 159 157 157 160 147 137 136 131 129 120 114 115 114 117 116 117 119 121 126 124 113 109 111 122 128 122 118 117 120 121 120 119 118 116 124 122 112 115 116 110 105 105 98 100
151 151 150 149 149 148 149 154 149 151 156 155 154 153 155 158 159 158 161 155 159 151 147 147 140 134 137 129 123 117 114 108 112 115 116 123 120 112 107 106 110 121 125 124 129 129 123 117 117 118 117 127 134 115 121 121 117 111 107 103 100 99
153 152 150 149 148 152 153 153 154 156 156 160 155 158 159 161 163 162 160 159 153 152 152 150 143 140 142 122 119 116 109 108 112 115 122 127 119 105 100 104 108 114 114 131 140 133 136 133 121 120 129 140 121 126 124 124 117 116 109 102 101 114
153 150 152 151 149 152 153 154 155 159 158 159 160 156 160 164 158 154 156 160 155 160 158 159 138 137 142 144 131 124 111 105 107 107 121 128 117 99 96 99 110 119 131 144 133 139 137 132 135 145 141 135 130 130 133 130 121 110 108 103 98 99
155 153 151 149 150 154 154 153 160 159 157 160 162 153 156 159 161 157 155 161 161 162 172 159 152 149 154 157 153 142 135 136 135 125 115 134 140 132 138 130 131 144 142 140 140 134 135 127 133 141 139 133 133 135 129 123 113 112 105 103 101 102
156 152 148 147 150 153 156 158 161 160 160 163 165 156 155 162 161 158 160 158 162 167 170 152 156 158 148 166 152 148 137 140 143 136 136 125 123 132 131 134 142 145 143 143 137 136 131 136 138 138 139 136 135 138 131 120 113 108 106 110 112 115
161 155 152 155 157 158 162 159 161 162 163 166 161 155 163 162 159 157 165 164 170 170 170 166 162 153 152 174 182 173 146 144 146 138 126 123 121 131 132 133 137 141 144 144 143 138 137 136 138 140 138 140 137 130 126 121 116 114 112 111 113 117
153 156 164 166 160 163 165 163 165 164 169 157 155 163 163 152 148 166 170 171 169 171 166 168 171 168 174 183 180 185 162 152 146 131 117 120 130 135 136 128 131 139 148 148 145 143 143 141 142 145 141 143 141 130 131 127 117 113 116 115 121 122
137 158 177 176 173 172 169 171 169 172 172 168 174 167 165 157 143 176 177 167 166 171 173 178 185 181 178 196 180 187 193 179 154 138 133 124 132 138 142 144 143 149 149 149 147 147 146 143 148 149 148 145 141 136 134 132 127 124 118 121 121 119
149 166 179 196 188 183 177 180 175 175 174 173 180 171 163 163 166 184 178 174 171 175 183 186 194 183 190 197 189 186 208 207 177 139 149 141 138 147 147 154 156 154 153 152 151 146 149 147 155 149 151 142 143 137 139 139 136 129 125 124 121 122
164 170 169 188 195 196 189 188 179 180 169 175 176 174 174 171 171 178 179 181 178 179 181 190 198 185 197 194 201 197 205 222 214 155 144 136 136 147 148 156 166 161 158 156 146 145 152 147 152 156 148 145 133 139 143 141 139 136 134 125 129 129
173 164 165 182 194 199 196 194 180 176 176 171 173 180 184 175 179 176 178 178 177 180 184 192 194 189 196 191 199 208 215 221 232 190 154 138 142 141 131 131 120 126 119 131 130 127 129 140 153 148 156 135 137 146 148 147 143 141 133 131 131 132
182 176 182 193 199 204 193 191 181 187 182 180 175 184 187 180 178 174 174 178 179 183 184 187 181 186 197 194 200 209 212 213 216 218 177 143 136 137 129 126 113 115 120 123 132 139 144 148 157 148 139 132 152 154 151 153 147 145 141 136 138 136
195 195 199 201 201 204 197 187 186 192 184 184 189 191 189 188 182 176 177 180 184 185 187 190 185 199 194 195 202 209 210 205 201 201 184 174 160 153 143 133 135 143 141 143 141 141 144 149 152 154 161 156 162 157 161 154 151 147 144 145 146 147
210 203 200 214 238 263 266 204 198 195 188 190 191 198 196 187 187 182 172 179 182 185 194 191 195 195 197 199 206 210 211 204 186 189 189 190 172 152 151 141 146 144 140 140 139 143 150 151 155 162 158 162 163 162 161 151 152 150 154 148 160 149
207 203 208 208 206 206 201 198 191 174 163 183 199 208 201 197 194 187 180 177 181 185 187 199 202 201 196 201 219 218 214 197 182 172 185 182 184 162 145 139 150 150 142 139 143 143 150 152 156 157 156 163 162 164 161 155 154 156 156 162 162 159
205 204 205 201 196 190 183 186 180 189 194 192 201 207 206 207 199 187 183 182 184 176 172 179 188 188 219 163 227 227 203 201 177 183 178 183 183 162 150 144 150 153 137 144 152 147 150 154 153 153 157 157 160 166 163 155 156 157 166 169 166 160
210 206 196 186 177 175 190 195 193 192 193 193 202 212 207 208 202 191 187 177 171 172 170 181 185 183 203 188 225 237 199 183 183 177 179 182 180 164 153 146 137 141 141 143 154 155 156 155 151 151 155 155 160 165 154 154 152 163 181 174 174 169
210 194 175 161 160 171 184 198 198 202 202 198 197 203 213 206 188 176 183 185 189 179 184 194 195 194 203 177 205 319 225 155 93 258 179 180 180 164 157 149 143 150 150 163 158 162 159 154 147 149 154 157 154 156 163 146 163 175 179 188 176 171
195 176 161 158 168 183 182 193 202 202 209 200 193 188 217 219 193 201 200 197 198 197 194 194 191 195 199 159 164 183 204 153 157 181 187 206 180 182 163 155 145 154 147 144 154 161 155 147 145 150 148 150 148 142 154 151 180 177 177 190 187 182
173 168 165 183 194 189 189 203 210 210 202 168 168 185 219 230 217 221 215 203 201 194 193 183 180 180 192 170 178 202 216 177 177 178 190 212 161 100 53 164 160 161 156 149 153 161 155 148 145 136 149 146 139 154 160 180 185 185 191 189 178 191
168 189 194 200 200 198 197 206 210 215 192 171 183 185 189 229 217 227 232 216 201 197 191 179 143 204 167 184 179 188 209 195 189 193 207 186 110 162 191 187 163 156 167 160 157 166 159 154 157 155 151 146 148 152 160 177 190 189 190 198 202 196
201 207 212 210 207 204 211 213 209 201 189 188 192 183 181 190 215 224 230 221 206 198 192 175 162 200 162 181 196 199 204 197 191 186 197 167 168 183 191 191 180 169 159 167 157 167 165 186 162 162 154 147 155 145 149 174 186 178 183 204 208 199
218 213 213 214 181 204 217 232 63 74 183 198 188 179 198 192 215 217 226 216 210 193 185 181 176 184 176 175 188 200 200 198 195 195 196 183 175 183 185 193 192 179 169 157 167 168 186 197 182 159 168 200 166 202 198 208 173 165 177 178 188 191
267 232 215 196 206 217 201 201 164 181 192 205 199 193 199 203 206 202 210 210 207 198 190 188 191 195 188 186 190 199 203 202 196 195 202 196 187 185 187 191 188 180 180 175 169 172 187 197 191 199 160 145 152 209 226 194 182 184 192 193 182 179
238 235 221 218 219 207 212 215 203 194 203 223 221 202 202 202 207 208 208 205 196 193 194 191 199 199 196 201 200 203 207 201 198 200 205 209 198 184 189 189 190 189 185 185 169 169 184 198 205 193 264 332 358 288 209 189 192 192 200 213 176 209
309 270 252 238 231 212 222 219 214 223 229 223 228 215 207 206 192 181 204 216 202 191 197 200 203 204 196 197 201 200 201 205 206 207 210 212 213 205 192 194 190 192 188 177 169 179 189 187 199 220 226 9 4 339 236 169 200 185 182 176 183 177
323 299 246 222 203 203 231 242 231 233 239 240 231 236 214 198 165 153 210 218 201 195 195 197 201 209 210 203 199 196 198 199 203 207 208 212 218 212 209 203 193 196 187 180 185 188 188 189 197 201 197 192 195 189 197 195 242 200 204 177 169 153
270 258 231 207 210 219 222 219 237 245 246 240 233 246 241 179 149 147 177 175 221 227 215 205 203 207 212 213 206 201 197 197 200 202 204 215 219 213 208 201 193 193 191 185 194 194 187 191 199 202 190 200 202 173 175 218 200 222 212 171 168 173
255 300 313 232 214 232 233 234 236 248 253 252 232 230 232 219 156 138 189 188 187 183 190 224 231 223 217 213 209 205 201 200 203 202 205 213 214 209 202 203 197 198 198 194 193 193 195 193 202 204 200 186 186 173 185 198 203 204 205 212 181 187
12 322 215 201 206 222 245 246 240 252 251 240 241 192 192 43 43 195 197 199 211 200 172 170 185 232 228 216 203 201 205 205 206 206 208 211 211 210 206 205 201 199 200 197 194 194 197 207 208 204 201 194 193 188 190 201 197 202 209 183 172 167
38 27 345 282 194 180 204 219 242 228 259 205 211 195 189 170 201 206 197 207 221 217 204 185 184 210 224 218 206 202 205 208 208 208 210 211 209 209 206 204 199 197 199 200 197 195 201 205 207 210 209 205 207 206 206 222 209 214 212 203 193 162
16 3 355 336 323 303 246 236 223 206 190 180 186 211 223 204 205 199 170 198 228 241 225 206 202 206 215 213 208 205 205 208 209 210 211 211 209 206 202 202 200 200 199 198 202 200 200 204 202 204 205 208 211 211 219 226 246 228 216 187 195 166
10 1 352 341 342 325 292 282 253 232 234 229 206 193 218 230 221 213 191 192 214 236 243 230 212 215 217 214 213 212 208 210 211 210 210 209 208 202 199 200 200 203 203 203 203 204 207 208 206 208 212 201 211 216 221 216 222 221 200 190 187 181
7 5 0 348 329 320 310 295 271 267 266 276 270 248 232 229 225 218 148 281 261 253 251 238 226 220 241 242 237 222 215 212 211 212 208 205 205 200 198 204 203 205 205 202 203 204 210 207 206 197 199 208 204 202 238 212 212 224 211 202 188 172
5 5 5 358 348 330 324 318 304 279 271 270 271 270 263 256 244 109 143 198 228 222 236 228 217 200 197 199 217 223 215 214 213 210 207 204 201 201 200 201 202 199 201 206 204 208 212 210 211 204 208 225 224 205 211 208 214 215 221 204 189 172
2 3 6 5 358 349 337 318 306 298 289 288 284 270 276 319 199 209 204 200 205 223 233 224 207 212 205 206 214 218 217 213 208 206 205 203 200 200 200 203 202 198 201 199 196 207 213 213 206 207 218 209 218 214 201 200 211 211 206 198 197 188